www.pogodaiklimat.ru

Погода и климат >> Архив погоды >> Россия >> Крым >> Алушта


АРХИВ ПОГОДЫ в Алуште

Время (UTC), дата Ветер
(напр.,м/с)
 
Видим.   Явления Облачность Т
(С)
Тd
(С)
f
(%)
Тe
(С)
Тes
(С)
Комфортность P
(гПа)
Po
(гПа)
Тmin
(С)
Tmax
(С)
R
(мм)
R24
(мм)
S
(см)
12 11.06 В 1 10 км слаб. ливневой дождь {гроза} 9/8 1500 м
[Cb calv Ci sp]
+24.6 +18.8 70 +29 +32 душно 1010.9 1002.4
15 11.06 В 2 50 км {ливн. осадки} 8/1 1500 м
[Sc diur, vesp Ci sp]
+27.6 +17.5 54 +32 +34 очень
душно
1008.8 1000.4 0.9
18 11.06 СЗ 4 50 км {ливн. осадки} 3/1 1500 м
[Sc Ac trans Ci sp]
+25.8 +14.3 49 +28 +28 жарко 1009.8 1001.3 +30.0 0.9
21 11.06 СЗ 3 20 км 8/0
[Ac trans Ci sp]
+27.2 +13.2 42 +29 +29 жарко 1009.8 1001.3
00 12.06 СЗ 4 20 км 8/0
[Ac As Ci sp]
+28.1 +12.0 37 +29 +29 жарко 1008.5 1000.0
03 12.06 штиль 0 50 км 9/8 1500 м
[Cb calv Ci sp]
+26.6 +14.0 46 +29 +29 жарко 1007.5 999.0 +25.0
06 12.06 В 1 50 км 3/1 1500 м
[Sc diur, vesp Ci fib]
+30.1 +16.1 43 +33 +42 душно 1008.4 1000.0 +25.8
09 12.06 С 1 20 км 7 баллов +30.8 +15.2 39 +33 +40 душно 1008.4 1000.0
12 12.06 Ю 2 20 км 3/1 1500 м
[Cu med, cong Ci fib]
+29.6 +19.6 55 +36 +47 очень
душно
1008.4 1000.0
15 12.06 В 1 20 км ясно +28.2 +18.9 57 +33 +38 очень
душно
1008.5 1000.0
18 12.06 СВ 1 20 км ясно +25.4 +15.1 53 +28 +28 жарко 1008.6 1000.0 +32.8
21 12.06 З 1 20 км 3/0
[Cc]
+23.5 +15.8 62 +27 +27 душно 1009.9 1001.3
00 13.06 З 1 20 км ясно +22.2 +14.3 61 +25 +25 комфорт 1010.0 1001.3
03 13.06 СВ 1 20 км 1/0
[Ci fib]
+24.7 +17.7 65 +29 +30 душно 1008.6 1000.1 +22.0
06 13.06 В 1 50 км 4/1 1500 м
[Cu med, cong Ac trans Ci fib]
+26.8 +19.2 63 +32 +39 очень
душно
1011.2 1002.7 +22.0
09 13.06 В 1 50 км 9/4 1500 м
[Cb calv Ci sp]
+28.8 +20.0 59 +35 +37 очень
душно
1011.2 1002.7
12 13.06 В 1 20 км 9/8 1500 м
[Cb cap Ci sp]
+27.1 +20.7 68 +34 +35 очень
душно
1012.5 1004.0
15 13.06 СВ 1 50 км {ливн. осадки} 8/4 1500 м
[Cb calv Ci sp]
+26.1 +18.8 64 +31 +33 очень
душно
1011.2 1002.7 0.0
18 13.06 С 1 20 км {ливн. осадки} 6/1 1500 м
[Cu med, cong Ci sp]
+24.3 +19.4 74 +29 +29 душно 1011.3 1002.8 +30.0 0.0
21 13.06 СЗ 1 20 км 4/0
[Ci sp]
+23.2 +18.3 74 +29 +29 душно 1012.6 1004.0
00 14.06 В 1 20 км 8/5 1500 м
[Sc Ci sp]
+22.5 +17.2 72 +27 +27 душно 1012.7 1004.0
03 14.06 З 1 50 км 8/5 1500 м
[Sc Ac trans Ci sp]
+23.6 +17.9 70 +28 +28 душно 1011.7 1003.1 +22.0
06 14.06 штиль 0 50 км 8/4 1500 м
[Sc Ac trans Ci sp]
+26.1 +17.7 60 +30 +35 душно 1012.5 1004.0 +22.0
09 14.06 ЮВ 1 50 км 8/6 1500 м
[Sc Ci sp]
+26.9 +20.0 66 +33 +40 очень
душно
1013.8 1005.3
12 14.06 В 1 50 км 6/3 1500 м
[Sc Ci sp]
+27.1 +20.2 66 +33 +40 очень
душно
1013.8 1005.3
15 14.06 штиль 0 50 км 8/8 1500 м
[Cb calv]
+26.3 +19.4 66 +32 +33 очень
душно
1013.9 1005.3
18 14.06 СЗ 1 20 км 6/6 1500 м
[Cb calv]
+24.9 +18.3 67 +29 +29 душно 1013.5 1005.0 +27.7
21 14.06 СЗ 1 20 км 3/3 1500 м
[Sc]
+25.3 +15.6 55 +28 +28 жарко 1015.3 1006.7
00 15.06 СЗ 2 20 км ясно +25.7 +12.5 44 +27 +27 жарко 1013.9 1005.3
03 15.06 СЗ 1 50 км 4/3 1500 м
[Sc Ci sp]
+25.7 +12.0 42 +27 +28 жарко 1011.9 1003.4 +24.9
06 15.06 Ю 2 50 км 8/6 1500 м
[Cb calv Ac trans]
+28.6 +22.3 69 +37 +40 очень
душно
1012.5 1004.0 +24.9
09 15.06 В 2 50 км 9/8 1500 м
[Cb calv Ac trans]
+31.0 +21.7 58 +39 +41 очень
душно
1012.4 1004.0
12 15.06 В 2 50 км 6/3 1500 м
[Cu med, cong Ci sp]
+30.3 +19.0 51 +36 +42 очень
душно
1012.4 1004.0
15 15.06 В 2 50 км 1/0
[Ci sp]
+29.2 +20.1 58 +36 +39 очень
душно
1011.2 1002.7
18 15.06 С 1 20 км 1/0
[Ci sp]
+27.8 +15.2 46 +30 +30 жарко 1010.3 1001.9 +31.5
21 15.06 СЗ 1 20 км 1/0
[Ci sp]
+27.4 +14.7 46 +30 +30 жарко 1011.2 1002.7
00 16.06 СЗ 1 20 км ясно +27.0 +11.8 39 +28 +28 жарко 1011.2 1002.7
03 16.06 СЗ 1 50 км ясно +27.1 +10.4 35 +28 +28 жарко 1009.5 1001.0 +26.5
06 16.06 В 2 50 км 1/0
[Cc]
+30.7 +12.6 33 +32 +40 жарко 1011.1 1002.7 +26.5
09 16.06 В 2 50 км 3/0
[Ci fib]
+31.6 +17.1 42 +35 +50 очень
душно
1011.1 1002.7
12 16.06 В 2 50 км ясно +31.3 +13.1 33 +32 +47 жарко 1011.1 1002.7
15 16.06 В 1 50 км ясно +29.3 +15.4 43 +32 +36 душно 1009.8 1001.3
18 16.06 СЗ 1 50 км ясно +26.6 +13.0 43 +28 +28 жарко 1009.8 1001.3 +32.4
21 16.06 СЗ 2 20 км ясно +26.0 +12.1 42 +27 +27 жарко 1009.9 1001.3
00 17.06 СЗ 2 20 км ясно +25.3 +10.3 39 +26 +26 жарко 1009.9 1001.3
03 17.06 СЗ 2 50 км ясно +26.6 +11.7 39 +28 +28 жарко 1009.4 1000.9 +25.0
06 17.06 В 2 50 км ясно +29.4 +16.2 45 +33 +42 душно 1011.2 1002.7 +25.0
09 17.06 Ю 3 50 км 1/1 1500 м
[Cu med, cong]
+30.5 +18.9 50 +36 +50 очень
душно
1011.1 1002.7
12 17.06 ЮВ 2 50 км 3/3 1500 м
[Cb calv]
+30.2 +19.8 54 +36 +48 очень
душно
1011.1 1002.7
15 17.06 ЮВ 1 50 км 6/6 1500 м
[Cb calv]
+27.7 +20.5 65 +34 +36 очень
душно
1011.2 1002.7
18 17.06 В 1 50 км 1/1 1500 м
[Sc]
+25.5 +18.3 64 +30 +30 душно 1010.8 1002.3 +32.4
21 17.06 СЗ 1 20 км 4 балла +25.4 +8.8 35 +26 +26 жарко 1012.6 1004.0
00 18.06 З 3 20 км 5/0
[Ac trans]
+26.3 +10.8 38 +27 +27 жарко 1012.6 1004.0
03 18.06 С 1 50 км 6/1 1500 м
[Cu hum Ac trans]
+25.7 +15.1 52 +29 +29 душно 1011.8 1003.3 +25.0
06 18.06 ЮВ 1 50 км 2 балла +27.3 +16.9 53 +31 +40 душно 1013.8 1005.3 +25.0

 

Местоположение метеостанции Алушта (Крым, Россия): широта 44.67 долгота 34.40 высота над уровнем моря 75 м.

В архиве по умолчанию представлена погода в Алуште за последнюю неделю. Архивные данные за месяц целиком и за предыдущие месяцы, начиная с января 2011 года, Вы можете получить, выбрав интересующий диапазон дат из раскрывающегося списка и нажав кнопку "Ввод!".


*Определитесь, кто Вы:
робот инопланетянин человек

Внимание! Время в таблицах - всемирное. Для получения местного времени необходимо прибавить поправку, которая равна 3 ч.

Смотрите также архив погоды в соседних городах и на ближайших метеорологических станциях:

Погода на Ангарском Перевале (Крым, Россия) (10 км)
Погода в Никитском саду (Крым, Россия) (20 км)
Погода в Ялте (Крым, Россия) (28 км)
Погода на Ай-Петри (Крым, Россия) (34 км)
Погода в Симферополе город (Крым, Россия) (38 км)
Погода в Почтовом (Крым, Россия) (40 км)
Погода в Белогорске (Крым, Россия) (45 км)
Погода в Симферополе (Крым, Россия) (52 км)
Погода в Карадаге (Крым, Россия) (68 км)
Погода в Севастополе (город Севастополь, Россия) (69 км)

Пояснения к столбцам:

Ветер - указаны скорость ветра в м/с - средняя за 10 мин, порывы в срок и между сроками (в фигурных скобках) и направление, откуда дует ветер: С - северный, СВ - северо-восточный, В - восточный, ЮВ - юго-восточный, Ю - южный, ЮЗ - юго-западный, З - западный, СЗ - северо-западный.
Видимость - горизонтальная дальность видимости в метрах или километрах. При видимости от 1 до 10 км при отсутствии осадков обычно наблюдается дымка, при ухудшении видимости до 1 км и менее - туман. В сухую погоду видимость может ухудшаться дымом, пылью или мглою.
Явления - указаны атмосферные явления, наблюдавшиеся в срок или в последний час перед сроком; фигурными скобками обозначены явления, наблюдавшиеся между сроками (за 1-3 часа до срока); квадратными скобками обозначены град или гололедные отложения с указанием их диаметра в мм.
Облачность - указаны через наклонную черту общая и нижняя облачность в баллах и высота нижней границы облаков в метрах; квадратными скобками обозначены формы облаков: Ci - перистые, Cs - перисто-слоистые, Cc - перисто-кучевые, Ac - высококучевые, As - высокослоистые, Sc - слоисто-кучевые, Ns - слоисто-дождевые, Cu - кучевые, Cb - кучево-дождевые. Подробнее классификацию облаков см. в Атласе облаков (PDF).
T - Температура воздуха - температура, измеренная на высоте 2 м над землей.
Td - Температура точки росы - температура, при понижении до которой содержащийся в воздухе водяной пар достигнет насыщения.
f - Относительная влажность воздуха - влажноcть воздуха, измеренная на высоте 2 м над землей.
Te - Эффективная температура - температура, которую ощущает одетый по сезону человек в тени. Характеристика душности погоды. При расчете учитывается влияние влажности воздуха и скорости ветра на теплоощущения человека.
Tes - Эффективная температура на солнце - температура, которую ощущает человек, с поправкой на солнечный нагрев. Характеристика знойности погоды. Зависит от высоты солнца над горизонтом, облачности и скорости ветра. Ночью, в пасмурную погоду, а также при ветре 12 м/с и более поправка равна нулю.
P - Атмосферное давление - приведенное к уровню моря атмосферное давление.
Po - Атмосферное давление - измеренное на уровне метеостанции атмосферное давление.
Tmin - Минимальная температура - минимум температуры воздуха на высоте 2 м над землей.
Tmax - Максимальная температура - максимум температуры воздуха на высоте 2 м над землей.
R - Количество осадков - Количество выпавших осадков за период времени, мм. При наведении курсора мыши на число - период времени, за который выпало указанное количество осадков.
R24 - Количество осадков - Количество выпавших осадков за 24 часа, мм.
S - Снежный покров - Высота снежного покрова, см. При наведении курсора мыши на число - состояние снежного покрова и степень покрытия местности в баллах.